FW9268 Weather Reports


Display with metric or nautical units.
time (UTC)temp
F
wind
direction
speed
MPH
gust
MPH
rain 1hr
in
rain 24hr
in
rain mn
in
humidity
%
barometer
mb
20260502151552 49 229 3.0 7.0 0.00 0.00 0.00 38 1024.9
20260502151522 49 230 4.0 7.0 0.00 0.00 0.00 39 1019.5
20260502123055 31 329 0.0 0.0 0.00 0.00 0.00 84 1020.8
20260502123043 31 0 0.0 0.0 0.00 0.00 0.00 83 1026.1
20260502121539 29 0 0.0 0.0 0.00 0.00 0.00 84 1026.1
20260502121536 29 329 0.0 0.0 0.00 0.00 0.00 84 1020.8
20260502114540 27 0 0.0 2.0 0.00 0.00 0.00 89 1026.0
20260502114531 27 329 0.0 0.0 0.00 0.00 0.00 89 1020.7
20260502113044 26 0 0.0 0.0 0.00 0.00 0.00 89 1026.0
20260502113032 26 329 0.0 0.0 0.00 0.00 0.00 90 1020.8
20260502111542 26 0 0.0 0.0 0.00 0.00 0.00 88 1026.0
20260502111529 26 329 0.0 0.0 0.00 0.00 0.00 89 1020.7
20260502110044 25 0 0.0 0.0 0.00 0.00 0.00 89 1026.0
20260502110026 25 329 0.0 0.0 0.00 0.00 0.00 89 1020.7
20260502104543 26 0 0.0 0.0 0.00 0.00 0.00 89 1026.0
20260502104534 26 329 0.0 0.0 0.00 0.00 0.00 89 1020.7
20260502103125 26 329 0.0 0.0 0.00 0.00 0.00 88 1020.8
20260502103038 26 0 0.0 0.0 0.00 0.00 0.00 87 1026.0
20260502101546 25 0 0.0 0.0 0.00 0.00 0.00 90 1026.0
20260502101525 25 329 0.0 0.0 0.00 0.00 0.00 90 1020.8
20260502091518 27 329 0.0 0.0 0.00 0.00 0.00 86 1021.0
20260502071505 29 329 0.0 0.0 0.00 0.00 0.00 83 1021.2
20260502070100 29 0 0.0 0.0 0.00 0.00 0.00 83 1026.5
20260502070003 29 329 0.0 0.0 0.00 0.00 0.00 83 1021.3
20260502064545 30 0 0.0 0.0 0.00 0.00 0.00 80 1026.6
20260502064501 30 329 0.0 0.0 0.00 0.00 0.00 81 1021.4
20260502063102 30 329 0.0 0.0 0.00 0.00 0.00 78 1021.5
20260502063037 30 0 0.0 0.0 0.00 0.00 0.00 78 1026.7
20260502061600 30 329 0.0 0.0 0.00 0.00 0.00 79 1021.5
20260502061544 30 0 0.0 0.0 0.00 0.00 0.00 78 1026.8
20260502060058 30 329 0.0 0.0 0.00 0.00 0.00 80 1021.4
20260502060045 30 0 0.0 0.0 0.00 0.00 0.00 80 1026.7
20260502054558 31 0 0.0 0.0 0.00 0.00 0.00 78 1026.8
20260502053109 32 329 0.0 0.0 0.00 0.00 0.00 82 1021.4
20260502053042 32 0 0.0 0.0 0.00 0.00 0.00 80 1026.8
20260502051551 32 329 0.0 0.0 0.00 0.00 0.00 83 1021.4
20260502051540 32 0 0.0 0.0 0.00 0.00 0.00 82 1026.8
20260502050051 32 329 0.0 0.0 0.00 0.00 0.00 77 1021.3
20260502050036 32 0 0.0 0.0 0.00 0.00 0.00 77 1026.7
20260502044547 33 329 0.0 0.0 0.00 0.00 0.00 72 1021.3
20260502044538 33 0 0.0 0.0 0.00 0.00 0.00 72 1026.6
20260502043050 33 0 0.0 0.0 0.00 0.00 0.00 77 1026.6
20260502043045 33 329 0.0 0.0 0.00 0.00 0.00 77 1021.3
20260502041603 32 0 0.0 0.0 0.00 0.00 0.00 79 1026.6
20260502041546 32 329 0.0 0.0 0.00 0.00 0.00 81 1021.3
20260502040050 33 0 0.0 1.0 0.00 0.00 0.00 79 1026.6
20260502040047 33 329 0.0 1.0 0.00 0.00 0.00 80 1021.3
20260502034544 34 329 0.0 0.0 0.00 0.00 0.00 65 1021.2
20260502034539 34 0 0.0 0.0 0.00 0.00 0.00 64 1026.5
20260502033050 34 329 0.0 0.0 0.00 0.00 0.00 63 1021.3
20260502033039 34 0 0.0 0.0 0.00 0.00 0.00 62 1026.7
20260502031549 33 329 0.0 0.0 0.00 0.00 0.00 71 1021.4
20260502031539 34 0 0.0 0.0 0.00 0.00 0.00 71 1026.7
20260502030055 34 0 0.0 0.0 0.00 0.00 0.00 68 1026.6
20260502024544 35 329 0.0 0.0 0.00 0.00 0.00 56 1021.3
20260502024541 36 0 0.0 0.0 0.00 0.00 0.00 57 1026.6
20260502023101 37 329 0.0 0.0 0.00 0.00 0.00 49 1021.3
20260502023054 37 0 0.0 0.0 0.00 0.00 0.00 49 1026.6
20260502021544 37 329 0.0 0.0 0.00 0.00 0.00 50 1021.1
20260502021541 37 0 0.0 2.0 0.00 0.00 0.00 49 1026.5
20260502020041 38 329 0.0 1.0 0.00 0.00 0.00 53 1021.1
20260502020039 38 0 0.0 1.0 0.00 0.00 0.00 53 1026.4
20260502014541 38 329 0.0 4.0 0.00 0.00 0.00 56 1021.0
20260502013044 39 0 0.0 3.0 0.00 0.00 0.00 50 1026.3
20260502013040 39 329 0.0 3.0 0.00 0.00 0.00 51 1020.9
20260502011550 40 0 0.0 4.0 0.00 0.00 0.00 50 1026.3
20260502011542 40 329 0.0 4.0 0.00 0.00 0.00 51 1020.9
20260502010039 41 0 1.0 8.0 0.00 0.00 0.00 44 1026.2
20260502010036 41 327 0.0 6.0 0.00 0.00 0.00 45 1020.8
20260502004539 42 360 1.0 11.0 0.00 0.00 0.00 42 1026.0
20260502003039 43 342 3.0 12.0 0.00 0.00 0.00 39 1025.9
20260502001541 44 346 3.0 15.0 0.00 0.00 0.00 39 1026.0
20260502001534 44 331 3.0 15.0 0.00 0.00 0.00 39 1020.6
20260502000056 45 304 5.0 13.0 0.00 0.00 0.00 36 1025.9
20260502000033 45 306 6.0 13.0 0.00 0.00 0.00 37 1020.5
20260501234540 45 349 7.0 16.0 0.00 0.00 0.00 36 1025.7
20260501234533 45 333 8.0 16.0 0.00 0.00 0.00 36 1020.5
20260501233050 46 46 6.0 14.0 0.00 0.00 0.00 36 1025.7
20260501233033 46 46 6.0 14.0 0.00 0.00 0.00 36 1020.3
20260501231543 46 333 8.0 14.0 0.00 0.00 0.00 33 1025.7
20260501231533 46 334 6.0 14.0 0.00 0.00 0.00 34 1020.3
20260501230111 47 301 6.0 14.0 0.00 0.00 0.00 34 1025.7
20260501230031 47 301 7.0 14.0 0.00 0.00 0.00 34 1020.3
20260501224550 47 348 6.0 15.0 0.00 0.00 0.00 37 1025.5
20260501224538 47 347 4.0 15.0 0.00 0.00 0.00 38 1020.1
20260501223046 47 334 4.0 14.0 0.00 0.00 0.00 41 1025.5
20260501223034 47 334 3.0 12.0 0.00 0.00 0.00 41 1020.1
20260501221539 47 9 4.0 14.0 0.00 0.00 0.00 38 1025.4
20260501221527 47 9 4.0 14.0 0.00 0.00 0.00 39 1020.0
20260501220041 46 308 7.0 11.0 0.00 0.00 0.00 39 1025.3
20260501220026 46 312 7.0 11.0 0.00 0.00 0.00 39 1020.0
20260501214535 46 332 5.0 16.0 0.00 0.00 0.00 39 1025.3
20260501214528 46 332 5.0 16.0 0.00 0.00 0.00 39 1020.0
20260501213036 45 324 6.0 17.0 0.00 0.00 0.00 41 1025.3
20260501213026 45 324 6.0 17.0 0.00 0.00 0.00 42 1020.1
20260501211542 45 306 3.0 14.0 0.00 0.00 0.00 42 1025.3
20260501211525 45 306 3.0 12.0 0.00 0.00 0.00 42 1020.1
20260501210040 46 323 4.0 13.0 0.00 0.00 0.00 42 1025.4
20260501210024 46 323 3.0 13.0 0.00 0.00 0.00 42 1020.2
20260501204543 44 315 6.0 12.0 0.00 0.00 0.00 41 1025.5
20260501204524 44 315 5.0 10.0 0.00 0.00 0.00 41 1020.3
20260501203038 45 346 5.0 13.0 0.00 0.00 0.00 44 1020.3
20260501203036 45 5 4.0 13.0 0.00 0.00 0.00 43 1025.4
20260501201538 43 317 6.0 16.0 0.00 0.00 0.00 42 1025.5
20260501201522 43 339 6.0 16.0 0.00 0.00 0.00 43 1020.3
20260501200041 43 304 2.0 11.0 0.00 0.00 0.00 43 1025.6
20260501200024 43 304 2.0 9.0 0.00 0.00 0.00 43 1020.4
20260501194540 43 338 5.0 15.0 0.00 0.00 0.00 41 1025.7
20260501194522 43 327 4.0 15.0 0.00 0.00 0.00 41 1020.5
20260501193039 45 334 4.0 12.0 0.00 0.00 0.00 42 1025.7
20260501193021 45 335 4.0 12.0 0.00 0.00 0.00 43 1020.4
20260501191538 43 42 7.0 13.0 0.00 0.00 0.00 43 1025.7
20260501191520 43 13 6.0 13.0 0.00 0.00 0.00 44 1020.4
20260501190037 43 360 4.0 12.0 0.00 0.00 0.00 46 1025.6
20260501190017 43 360 4.0 12.0 0.00 0.00 0.00 47 1020.5
20260501184544 42 351 5.0 12.0 0.00 0.00 0.00 46 1020.4
20260501183039 44 5 5.0 16.0 0.00 0.00 0.00 44 1025.5
20260501183018 44 51 4.0 12.0 0.00 0.00 0.00 45 1020.3
20260501181539 42 351 5.0 16.0 0.00 0.00 0.00 47 1025.7
20260501181515 42 360 6.0 16.0 0.00 0.00 0.00 47 1020.5
20260501180044 41 360 7.0 16.0 0.00 0.00 0.00 48 1025.7
20260501180021 41 360 6.0 16.0 0.00 0.00 0.00 48 1020.5
20260501174540 42 16 4.0 15.0 0.00 0.00 0.00 50 1025.8
20260501174515 42 27 5.0 15.0 0.00 0.00 0.00 50 1020.5
20260501173100 41 341 6.0 16.0 0.00 0.00 0.00 52 1025.8
20260501173013 40 5 6.0 16.0 0.00 0.00 0.00 52 1020.7
20260501171542 40 328 5.0 17.0 0.00 0.00 0.00 50 1025.9
20260501171513 40 329 4.0 13.0 0.00 0.00 0.00 51 1020.6
20260501170040 41 321 5.0 13.0 0.00 0.00 0.00 49 1025.7
20260501170011 41 312 5.0 13.0 0.00 0.00 0.00 49 1020.5
20260501164600 40 352 6.0 16.0 0.00 0.00 0.00 51 1025.9
20260501164510 40 355 5.0 16.0 0.00 0.00 0.00 52 1020.6
20260501163037 40 340 5.0 16.0 0.00 0.00 0.00 51 1025.8
20260501163011 40 303 5.0 16.0 0.00 0.00 0.00 54 1020.6
20260501161540 41 339 5.0 15.0 0.00 0.00 0.00 51 1025.7
20260501161516 41 360 6.0 15.0 0.00 0.00 0.00 52 1020.5
20260501160043 40 352 5.0 14.0 0.00 0.00 0.00 55 1025.7
20260501160006 40 355 4.0 14.0 0.00 0.00 0.00 56 1020.5
20260501154546 40 13 7.0 13.0 0.00 0.00 0.00 52 1025.7
20260501154507 40 319 7.0 13.0 0.00 0.00 0.00 53 1020.3